Weather History for KMDW - March, 2014

Change the Weather History Date:

Tuesday, March 11, 2014

  Actual Average Record
Temperature  
Mean Temperature 42 °F 37 °F  
Max Temperature 51 °F 45 °F 76 °F (1990)
Min Temperature 33 °F 29 °F 3 °F (1979)
Degree Days  
Heating Degree Days 23 28  
Month to date heating degree days 419 328  
Since 1 July heating degree days 5621 4839  
Cooling Degree Days 0 0  
Month to date cooling degree days 0 0  
Year to date cooling degree days 0 0  
Moisture  
Dew Point 34 °F    
Average Humidity 77    
Maximum Humidity 93    
Minimum Humidity 48    
Precipitation  
Precipitation 0.37 in 0.08 in 0.92 in (1957)
Month to date precipitation 0.38 0.93  
Year to date precipitation 2.87 4.93  
Sea Level Pressure  
Sea Level Pressure 29.72 in    
Wind  
Wind Speed 11 mph (NNE)    
Max Wind Speed 26 mph    
Max Gust Speed 34 mph    
Visibility 9 miles    
Events Rain , Snow    
T = Trace of Precipitation, MM = Missing Value Source: NWS Daily Summary

Daily Weather History Graph

Daily Weather History Graph

Search for Another Location

Airport or City:

Trip Planner

Search our weather history database for the weather conditions in past years. The results will help you decide how hot, cold, wet, or windy it might be!

Date:

Astronomy

Mar. 11, 2014 Rise Set
Actual Time 7:09 AM CDT 6:53 PM CDT
Civil Twilight 6:41 AM CDT 7:20 PM CDT
Nautical Twilight 6:09 AM CDT 7:53 PM CDT
Astronomical Twilight 5:37 AM CDT 8:25 PM CDT
Moon 2:26 PM CDT (3/11) 4:06 AM CDT (3/11)
Length of Visible Light 12h 38m
Length of Day
11h 43m
Waxing Gibbous, 78% of the Moon is Illuminated
Mar 11
Waxing Gibbous
Mar 16
Full
Mar 23
Last Quarter
Mar 30
New
Apr 7
First Quarter

Hourly Weather History & Observations

Time (CDT) Temp. Windchill Dew Point Humidity Pressure Visibility Wind Dir Wind Speed Gust Speed Precip Events Conditions
12:51 AM 42.1 °F 40.2 °F 37.9 °F 85% 29.69 in 10.0 mi West 3.5 mph - N/A   Scattered Clouds
1:51 AM 41.0 °F - 37.9 °F 89% 29.68 in 10.0 mi Calm Calm - N/A   Mostly Cloudy
2:51 AM 42.1 °F 40.2 °F 37.9 °F 85% 29.68 in 10.0 mi SW 3.5 mph - N/A   Overcast
3:51 AM 39.9 °F 37.8 °F 37.9 °F 93% 29.66 in 10.0 mi WSW 3.5 mph - N/A   Overcast
4:51 AM 39.9 °F 37.8 °F 37.9 °F 93% 29.66 in 10.0 mi East 3.5 mph - N/A   Mostly Cloudy
5:51 AM 39.0 °F - 36.0 °F 89% 29.67 in 10.0 mi Calm Calm - N/A   Overcast
6:51 AM 41.0 °F - 37.0 °F 86% 29.69 in 10.0 mi Calm Calm - N/A   Mostly Cloudy
7:51 AM 43.0 °F 40.3 °F 37.9 °F 82% 29.69 in 10.0 mi South 4.6 mph - N/A   Overcast
8:51 AM 45.0 °F - 39.0 °F 80% 29.71 in 10.0 mi Calm Calm - N/A   Overcast
9:51 AM 46.0 °F 44.8 °F 37.9 °F 73% 29.72 in 10.0 mi Variable 3.5 mph - N/A   Overcast
10:51 AM 48.0 °F - 34.0 °F 58% 29.70 in 10.0 mi East 8.1 mph - N/A   Overcast
11:51 AM 51.1 °F - 33.1 °F 50% 29.68 in 10.0 mi ENE 11.5 mph - N/A   Overcast
12:51 PM 50.0 °F - 34.0 °F 54% 29.70 in 10.0 mi NE 15.0 mph - N/A   Overcast
1:51 PM 48.0 °F - 32.0 °F 54% 29.71 in 10.0 mi NNE 18.4 mph - N/A   Overcast
2:51 PM 46.0 °F 40.6 °F 33.1 °F 61% 29.70 in 10.0 mi NNE 11.5 mph - N/A   Overcast
3:51 PM 44.1 °F 37.7 °F 30.9 °F 60% 29.72 in 10.0 mi NNE 12.7 mph 24.2 mph N/A   Overcast
4:51 PM 43.0 °F 35.1 °F 33.1 °F 68% 29.72 in 10.0 mi NE 17.3 mph - N/A   Overcast
5:51 PM 39.9 °F 30.0 °F 32.0 °F 73% 29.73 in 10.0 mi NNE 21.9 mph 29.9 mph N/A   Overcast
6:51 PM 39.0 °F 30.3 °F 30.9 °F 73% 29.74 in 10.0 mi NE 16.1 mph 27.6 mph N/A   Overcast
7:51 PM 39.0 °F 29.0 °F 32.0 °F 76% 29.77 in 10.0 mi NNE 20.7 mph 28.8 mph N/A   Overcast
8:51 PM 39.0 °F 29.6 °F 33.1 °F 79% 29.74 in 10.0 mi NNE 18.4 mph 26.5 mph 0.00 in   Light Drizzle
9:21 PM 39.0 °F 31.8 °F 33.1 °F 79% 29.76 in 10.0 mi North 11.5 mph - 0.00 in   Light Ice Pellets
9:31 PM 39.0 °F 31.4 °F 33.1 °F 79% 29.76 in 10.0 mi NNE 12.7 mph - 0.00 in   Overcast
9:51 PM 37.9 °F 29.2 °F 33.1 °F 83% 29.78 in 9.0 mi NNE 15.0 mph 24.2 mph 0.00 in Rain Light Rain
10:00 PM 37.0 °F 28.5 °F 34.0 °F 89% 29.76 in 5.0 mi NNE 13.8 mph - 0.00 in Rain Light Rain
10:51 PM 37.0 °F 25.9 °F 34.0 °F 89% 29.75 in 3.0 mi NNE 23.0 mph 28.8 mph 0.11 in Rain , Snow Light Rain
11:00 PM 36.0 °F 24.7 °F 33.1 °F 89% 29.72 in 4.0 mi NNE 21.9 mph 34.5 mph 0.03 in Rain , Snow Light Rain
11:22 PM 35.1 °F 24.1 °F 33.1 °F 92% 29.74 in 1.5 mi NNE 19.6 mph - 0.08 in Rain , Snow Light Rain
11:51 PM 34.0 °F 24.2 °F 32.0 °F 92% 29.75 in 1.0 mi NNE 15.0 mph - 0.15 in Snow Light Snow
11:55 PM 34.0 °F 23.8 °F 32.0 °F 92% 29.73 in 0.8 mi NNE 16.1 mph - 0.01 in Snow Light Snow